Wind_Speed
13 13 13 13 14 14 12 12 13 13 12 12 11 11 11 10 10 9 9 9 9 9 9 9 9 9 9 9 9 9 9 9 9 9 9 9 10 10 9 9 9 8 9 9 9 9 10 10 9
13 13 13 14 15 12 12 12 12 13 13 12 12 11 12 11 10 10 10 9 9 10 10 9 9 9 9 9 9 9 10 10 9 9 10 10 10 10 10 9 9 8 9 9 9 10 9 10 9
13 13 13 14 13 12 11 11 12 12 12 12 12 12 11 11 10 10 9 9 9 9 9 9 10 9 9 9 9 9 9 9 10 10 9 9 10 10 9 9 9 9 10 10 9 9 9 9 9
14 13 13 14 12 11 11 11 11 12 12 12 12 12 11 11 10 9 9 9 9 9 9 9 9 9 9 8 9 8 9 9 10 10 9 9 9 9 9 8 8 9 9 9 9 9 9 8 8
13 13 14 13 11 11 11 11 12 12 12 12 12 12 11 11 10 9 9 9 9 8 7 7 7 8 9 9 8 8 9 9 9 9 9 8 8 8 8 8 8 8 8 8 8 9 8 8 7
12 14 14 12 11 11 11 11 12 12 12 11 11 11 11 11 10 9 9 9 8 7 7 6 7 8 9 9 8 9 9 9 8 9 8 8 8 7 7 7 7 8 8 8 8 8 8 7 6
12 13 12 12 12 11 11 11 12 13 13 12 11 11 11 11 10 9 9 8 8 7 7 7 8 8 8 8 8 8 8 8 8 8 8 7 8 7 6 7 8 7 7 7 7 8 7 6 6
13 14 12 11 12 11 11 11 12 13 13 12 11 11 11 11 11 10 9 9 8 8 8 7 7 7 8 8 8 8 8 8 8 8 7 7 6 7 7 8 8 8 7 7 7 7 6 5 5
12 14 11 11 11 11 10 11 11 12 12 12 11 11 11 11 11 10 9 9 9 8 8 7 7 7 7 7 7 6 7 7 8 7 7 6 6 7 7 7 8 8 7 6 6 6 5 5 5
11 11 10 10 10 11 11 11 11 11 11 12 12 12 11 11 11 11 10 10 9 9 8 8 8 7 7 6 6 6 7 7 8 8 7 7 7 7 6 6 7 7 6 6 6 6 5 5 5
9 9 9 9 9 11 11 11 10 11 11 11 12 11 11 11 11 11 10 10 9 9 8 7 7 7 7 7 7 7 7 7 8 7 7 7 7 6 6 6 6 6 5 5 5 5 5 4 5
7 8 8 9 9 10 11 10 10 10 10 10 11 10 11 11 10 10 10 9 9 8 8 7 7 7 7 7 7 7 7 7 7 7 6 6 7 7 7 7 6 5 4 4 5 4 4 4 4
5 6 6 8 8 9 9 9 9 9 9 9 9 10 11 11 10 9 9 8 8 7 7 7 6 7 6 7 7 7 7 7 7 7 6 6 6 6 6 6 5 4 4 3 4 3 3 3 3
3 3 5 6 7 7 8 8 7 8 8 8 8 8 9 9 9 8 7 7 6 6 6 6 5 6 6 6 6 7 6 6 6 6 5 5 5 5 5 5 4 4 3 3 3 3 3 3 2
2 2 2 3 4 5 5 6 5 6 6 6 6 7 7 7 7 6 6 5 5 5 5 5 5 5 5 6 6 6 5 5 5 4 4 4 4 4 4 3 3 3 3 4 4 3 3 2 1
1 1 0 1 1 3 4 5 4 4 4 5 5 5 5 5 5 5 4 4 4 4 4 3 3 3 4 4 4 5 5 4 4 3 3 4 4 3 3 3 3 3 3 3 3 3 2 2 1
3 2 3 3 3 2 2 3 3 3 3 3 4 4 4 4 4 4 4 4 3 3 2 2 3 3 2 2 2 3 3 3 3 2 2 3 3 2 2 2 2 2 3 3 2 2 2 1 0
6 5 6 6 5 4 3 3 4 3 2 3 3 4 4 3 3 3 3 4 3 3 2 2 2 2 1 1 1 2 2 2 2 1 1 2 2 1 1 1 1 1 2 2 2 1 1 1 1
7 7 7 7 7 6 5 4 4 4 4 4 4 4 4 4 4 4 4 4 4 3 3 3 3 2 2 2 2 1 1 2 2 2 2 2 3 2 2 2 2 2 2 2 2 3 3 2 2
8 8 8 8 9 8 8 7 6 5 5 6 6 5 5 5 5 5 5 5 5 5 4 4 4 3 3 2 3 3 2 2 3 3 4 4 5 4 3 3 3 4 4 4 4 4 4 4 4
10 10 10 10 9 9 8 8 8 7 7 7 7 7 6 6 7 7 7 6 6 6 6 5 5 5 4 4 4 4 4 4 4 5 5 6 5 5 5 4 4 5 6 6 6 5 5 5 5
12 12 11 10 9 9 8 8 9 9 9 9 9 9 8 8 8 9 9 8 8 8 7 7 7 6 5 5 5 5 6 6 6 6 5 6 6 6 5 6 6 6 7 8 7 7 7 7 7
14 13 12 12 11 10 10 8 9 10 10 9 9 10 10 9 9 10 10 9 9 9 8 8 8 8 7 7 7 7 7 7 7 7 6 7 7 7 6 7 7 8 8 8 8 8 8 8 9
14 13 13 13 12 12 12 10 10 10 10 10 10 11 11 11 11 11 11 11 10 10 9 9 9 9 9 9 9 9 9 8 8 7 8 8 8 8 8 8 8 8 8 8 9 9 9 9 10
15 13 12 11 11 13 13 12 12 13 12 11 11 11 12 12 12 12 12 12 11 11 11 10 10 10 10 10 10 10 10 10 9 9 9 9 9 9 9 9 9 9 10 10 10 10 11 11 11
15 15 14 13 13 13 14 12 12 13 13 13 13 13 12 12 12 12 12 12 12 12 12 12 11 11 11 12 11 11 12 12 11 11 10 10 10 11 11 11 11 11 11 11 11 11 12 12 13
17 16 16 16 16 15 15 14 12 13 13 13 13 14 14 13 13 13 13 13 13 14 14 13 12 13 13 13 13 12 12 13 13 13 13 12 12 12 12 13 13 12 13 13 13 13 13 13 13
18 17 17 17 17 16 16 15 13 13 13 14 15 14 14 15 15 14 14 15 14 14 15 15 14 14 14 15 14 14 13 13 14 14 14 14 14 14 14 15 15 14 14 14 14 14 14 14 14
20 20 19 19 18 17 16 15 16 15 15 15 16 15 15 16 16 15 15 15 16 15 15 15 15 15 15 15 15 14 14 15 15 16 16 16 16 16 16 16 17 16 16 16 16 15 16 16 16
21 21 20 20 21 20 19 18 18 17 17 17 17 17 17 17 16 17 16 16 17 16 16 16 16 16 15 16 16 17 16 16 17 17 17 17 16 17 17 18 18 18 18 18 18 17 17 17 17
Wind_Direction
86 85 83 83 78 75 79 80 78 78 77 80 81 85 89 96 98 97 98 99 100 100 100 100 103 104 107 113 120 123 124 122 119 116 115 116 118 117 112 113 116 119 117 121 123 124 123 122 120
86 86 85 83 79 80 79 81 81 80 79 79 80 84 85 92 95 99 101 100 99 101 99 101 104 105 110 119 121 121 121 123 123 119 117 116 117 117 113 112 117 118 120 123 122 126 124 125 123
86 86 84 80 80 82 82 80 79 79 77 78 79 81 85 85 89 92 96 96 97 99 100 101 102 103 110 119 121 123 122 125 127 125 121 119 117 116 114 112 113 117 120 125 127 129 123 126 125
86 85 79 77 79 80 79 76 74 77 78 79 79 78 80 83 82 84 88 93 96 98 100 102 104 102 107 117 127 128 129 125 127 130 128 125 119 117 115 113 114 119 125 126 127 128 128 129 124
84 83 76 75 76 75 77 74 72 76 79 80 81 79 76 78 78 81 85 90 95 97 95 98 100 102 108 115 122 126 128 125 124 126 125 122 119 118 118 120 117 121 126 126 129 126 127 129 128
84 82 80 76 74 73 74 72 73 75 76 78 78 79 76 77 77 78 81 85 91 93 93 97 101 108 109 113 115 119 123 125 126 124 124 120 121 126 126 126 124 122 123 127 125 124 126 125 123
82 83 80 75 72 71 70 73 78 79 76 74 75 77 75 75 77 79 82 85 89 92 93 94 103 103 103 111 115 117 122 127 130 132 131 128 129 129 134 133 129 128 128 128 127 129 128 128 126
80 81 78 74 68 66 67 72 78 79 76 72 73 79 77 74 74 78 82 83 87 93 96 97 96 99 100 105 112 116 123 130 132 131 131 129 128 125 125 128 128 128 127 125 124 129 130 130 135
84 78 75 71 64 62 65 73 77 76 74 72 73 80 80 76 75 79 80 82 85 89 93 98 95 97 99 101 105 109 117 127 134 132 129 126 124 124 127 125 127 126 122 121 126 133 134 130 133
83 80 75 69 65 64 67 71 73 71 73 73 72 78 79 76 76 76 78 79 80 83 86 90 97 98 96 96 102 109 117 122 126 127 124 121 121 125 127 125 123 120 118 117 125 124 124 127 127
82 79 73 68 69 69 70 69 70 70 70 73 72 75 77 78 77 74 75 76 76 77 81 86 88 88 89 91 100 111 116 118 121 126 124 121 123 126 128 126 128 125 116 117 129 126 126 128 124
84 79 72 71 74 74 71 68 70 70 69 70 73 77 80 77 75 73 73 76 77 77 79 79 79 87 88 92 97 105 115 118 120 123 125 125 126 128 126 128 128 124 121 122 134 142 147 142 136
91 83 71 71 71 70 69 68 69 67 68 70 73 76 77 74 72 72 74 75 74 75 74 75 78 88 89 95 99 102 108 113 118 120 122 129 137 133 123 120 123 120 121 128 139 156 158 165 150
105 88 78 71 66 62 63 65 63 61 63 63 64 67 70 70 70 71 72 71 70 72 72 70 75 92 92 94 103 102 106 112 117 123 122 128 136 136 131 117 117 117 118 122 137 152 153 159 159
130 98 86 70 55 56 54 53 48 43 51 53 52 52 58 65 65 66 64 61 61 65 65 64 71 83 96 98 110 116 116 120 124 124 129 127 131 137 129 105 107 118 126 124 128 138 140 140 156
174 137 270 310 11 31 35 24 17 26 37 38 40 41 46 47 48 53 53 47 47 54 56 55 59 71 80 97 110 119 121 124 134 132 136 143 138 123 120 118 120 117 134 140 136 129 128 127 144
232 242 254 264 287 319 349 350 339 358 13 18 17 19 24 23 23 28 29 27 26 25 36 35 41 56 58 76 106 122 124 134 139 126 126 133 133 133 124 150 140 135 145 155 154 129 122 132 148
233 243 253 261 271 284 291 313 308 306 315 335 345 347 350 357 2 352 355 4 8 1 1 11 7 15 43 38 44 142 150 156 162 143 134 154 160 169 176 183 165 170 187 197 198 187 195 207 252
239 246 253 259 264 271 279 290 290 288 296 306 313 316 318 320 329 325 323 332 337 330 332 339 342 333 339 347 353 359 203 200 204 217 217 210 218 225 229 233 223 235 248 252 247 242 246 259 272
247 254 259 262 266 265 271 283 283 283 282 289 296 295 301 302 307 307 307 307 311 314 306 312 322 315 315 319 320 318 307 253 243 236 240 238 235 239 242 239 248 258 263 264 265 260 258 272 283
250 255 260 269 272 268 270 281 281 283 278 277 281 283 288 290 293 290 289 289 292 298 296 296 305 302 297 298 297 292 290 282 267 250 245 240 235 238 243 250 257 259 261 268 270 267 268 275 285
253 256 261 266 268 271 268 272 275 275 277 276 276 274 275 278 283 284 282 280 283 290 290 290 293 291 288 290 288 285 285 283 280 272 259 252 245 243 246 250 261 269 268 268 267 269 277 282 286
249 257 262 265 269 270 271 266 268 269 273 275 275 272 269 268 272 276 279 278 281 285 286 286 288 285 281 282 283 283 283 281 282 276 269 268 259 254 258 266 272 276 275 270 270 277 282 284 289
253 260 267 270 269 269 267 264 262 263 264 269 270 273 272 268 267 270 273 274 277 279 282 285 288 284 281 280 280 279 279 279 277 274 275 272 267 266 268 268 270 278 278 276 274 275 277 280 287
254 257 265 270 269 269 267 264 260 261 264 265 267 271 271 271 269 269 271 274 275 273 276 278 282 281 281 280 281 283 281 279 277 272 271 271 273 275 276 275 274 279 282 278 279 279 280 279 284
250 248 248 254 259 267 273 270 262 264 266 267 266 268 270 270 268 267 268 269 270 269 271 273 274 277 280 282 282 284 284 280 277 273 270 270 274 274 272 274 275 277 280 280 281 281 283 283 283
250 250 251 253 257 260 265 268 267 269 269 268 266 266 268 268 267 266 267 266 265 266 267 270 272 275 279 281 280 277 280 279 274 271 270 270 273 273 270 270 272 275 276 278 280 280 283 285 285
249 253 256 251 254 259 266 268 265 268 272 270 265 265 265 265 266 267 266 264 263 262 265 268 270 273 278 280 281 279 277 274 271 267 269 272 272 273 271 270 271 271 273 277 280 283 284 284 284
253 254 256 255 255 258 262 264 262 264 269 271 269 266 265 266 267 268 265 259 259 261 264 267 269 272 276 278 278 278 278 277 274 269 267 269 272 274 275 274 274 271 272 274 277 280 281 284 285
253 255 256 257 260 262 261 265 268 267 270 271 270 269 267 266 264 264 264 262 260 260 263 265 268 271 273 276 277 279 278 277 273 268 266 269 272 275 276 277 278 275 272 272 273 277 278 281 284
Height
5903 5902 5902 5903 5903 5903 5902 5901 5899 5898 5897 5896 5895 5895 5894 5894 5895 5896 5894 5892 5892 5892 5891 5891 5891 5890 5890 5890 5891 5891 5891 5891 5892 5892 5892 5892 5893 5893 5894 5894 5895 5895 5896 5897 5897 5898 5898 5899 5900
5904 5904 5905 5905 5905 5906 5905 5903 5901 5900 5899 5897 5897 5896 5895 5895 5895 5894 5893 5893 5893 5893 5892 5892 5892 5892 5892 5892 5892 5892 5892 5892 5893 5893 5893 5894 5894 5895 5895 5896 5896 5897 5897 5898 5898 5899 5899 5900 5901
5906 5906 5907 5907 5907 5907 5906 5904 5903 5901 5900 5899 5898 5897 5897 5896 5896 5895 5895 5894 5894 5894 5893 5893 5893 5893 5893 5893 5893 5893 5893 5893 5894 5894 5894 5895 5895 5896 5896 5897 5897 5898 5898 5899 5899 5900 5900 5901 5902
5909 5909 5910 5910 5909 5908 5907 5906 5904 5903 5901 5900 5900 5899 5898 5898 5897 5897 5896 5895 5895 5895 5895 5895 5894 5894 5893 5893 5893 5894 5894 5894 5894 5895 5895 5896 5896 5897 5897 5898 5898 5898 5899 5900 5900 5901 5901 5902 5902
5911 5912 5912 5912 5911 5910 5909 5907 5906 5904 5903 5902 5901 5900 5899 5899 5898 5898 5897 5897 5896 5896 5896 5896 5895 5895 5894 5894 5894 5894 5895 5895 5895 5896 5896 5897 5897 5898 5898 5899 5899 5899 5900 5900 5901 5901 5902 5903 5903
5914 5914 5916 5914 5913 5912 5910 5909 5907 5906 5905 5904 5903 5902 5901 5900 5899 5899 5898 5898 5898 5898 5897 5897 5896 5896 5895 5895 5895 5895 5895 5896 5896 5897 5897 5898 5898 5899 5899 5899 5900 5900 5900 5901 5901 5902 5902 5903 5903
5917 5916 5917 5916 5915 5914 5913 5911 5909 5908 5906 5905 5904 5903 5902 5901 5900 5900 5900 5899 5899 5899 5899 5898 5897 5897 5896 5896 5896 5896 5896 5896 5897 5897 5898 5898 5899 5899 5899 5900 5900 5900 5901 5901 5902 5902 5903 5903 5904
5918 5919 5919 5918 5917 5916 5914 5912 5911 5909 5908 5907 5906 5904 5904 5903 5902 5901 5901 5901 5900 5900 5900 5900 5899 5898 5898 5897 5897 5897 5897 5897 5898 5898 5899 5899 5899 5899 5900 5900 5900 5901 5901 5902 5902 5903 5903 5903 5904
5920 5922 5921 5920 5919 5918 5916 5914 5913 5911 5910 5908 5907 5906 5905 5904 5904 5903 5903 5902 5902 5902 5901 5901 5900 5900 5899 5899 5898 5898 5898 5898 5899 5899 5899 5899 5900 5900 5901 5901 5901 5901 5902 5903 5903 5904 5904 5904 5904
5922 5923 5922 5921 5920 5919 5917 5916 5915 5913 5912 5911 5909 5908 5907 5906 5906 5905 5905 5904 5904 5904 5903 5902 5902 5901 5900 5900 5899 5899 5899 5899 5900 5900 5900 5901 5901 5901 5902 5902 5902 5902 5903 5903 5904 5904 5904 5904 5905
5924 5924 5923 5922 5921 5920 5919 5918 5916 5915 5914 5913 5912 5911 5909 5909 5908 5907 5907 5906 5906 5905 5905 5904 5903 5903 5902 5901 5900 5900 5900 5900 5901 5901 5901 5902 5902 5902 5902 5902 5903 5903 5904 5904 5904 5904 5905 5905 5905
5925 5925 5924 5923 5922 5921 5921 5919 5918 5917 5916 5915 5914 5913 5912 5911 5910 5910 5909 5909 5908 5907 5907 5906 5905 5904 5903 5903 5902 5902 5902 5902 5902 5903 5903 5903 5903 5903 5903 5903 5903 5904 5904 5904 5905 5905 5905 5905 5905
5926 5926 5926 5925 5924 5923 5922 5921 5920 5919 5918 5917 5916 5915 5914 5913 5913 5912 5911 5911 5910 5909 5909 5907 5907 5906 5905 5904 5904 5903 5904 5904 5904 5904 5904 5904 5904 5904 5904 5904 5904 5904 5905 5905 5905 5905 5905 5905 5906
5927 5927 5927 5926 5926 5925 5924 5923 5922 5921 5920 5919 5918 5917 5916 5915 5915 5914 5913 5913 5912 5911 5910 5909 5908 5907 5907 5906 5906 5905 5905 5905 5905 5905 5905 5905 5905 5905 5905 5905 5905 5905 5905 5905 5905 5905 5905 5905 5906
5928 5928 5928 5927 5927 5926 5926 5925 5923 5922 5921 5920 5919 5918 5918 5917 5916 5916 5915 5914 5914 5913 5912 5911 5909 5909 5908 5907 5907 5906 5906 5906 5906 5906 5906 5906 5906 5906 5905 5905 5905 5905 5904 5905 5905 5905 5905 5906 5906
5928 5929 5929 5928 5927 5927 5928 5926 5925 5923 5922 5921 5920 5920 5919 5918 5918 5917 5916 5916 5915 5914 5913 5912 5910 5910 5909 5908 5908 5907 5907 5907 5907 5907 5906 5906 5906 5906 5906 5906 5906 5905 5905 5905 5906 5906 5906 5906 5905
5929 5930 5929 5929 5927 5926 5927 5926 5925 5924 5923 5922 5921 5920 5920 5919 5919 5918 5917 5916 5915 5914 5913 5912 5911 5910 5909 5909 5908 5908 5907 5907 5907 5907 5907 5906 5906 5906 5906 5906 5906 5906 5906 5906 5906 5906 5906 5906 5905
5929 5929 5928 5928 5927 5926 5926 5925 5924 5923 5923 5922 5922 5921 5920 5920 5919 5919 5918 5917 5916 5915 5914 5913 5912 5911 5910 5909 5908 5908 5907 5907 5907 5907 5907 5907 5907 5907 5906 5906 5906 5906 5906 5906 5906 5906 5906 5905 5905
5926 5927 5927 5927 5926 5926 5925 5924 5924 5923 5922 5922 5921 5921 5920 5920 5919 5919 5918 5917 5916 5915 5914 5913 5912 5911 5910 5909 5909 5908 5907 5907 5907 5906 5906 5906 5906 5906 5906 5906 5906 5906 5906 5906 5906 5906 5905 5905 5905
5924 5925 5925 5925 5924 5924 5924 5924 5923 5922 5922 5921 5921 5921 5920 5920 5919 5918 5917 5917 5916 5915 5914 5913 5912 5911 5910 5910 5909 5908 5907 5907 5906 5906 5906 5905 5905 5905 5906 5906 5905 5905 5905 5905 5905 5905 5905 5904 5904
5921 5922 5923 5923 5923 5923 5923 5923 5922 5921 5921 5920 5920 5919 5919 5919 5918 5918 5917 5916 5915 5915 5914 5913 5912 5911 5910 5909 5908 5908 5907 5906 5906 5905 5905 5905 5904 5905 5905 5905 5904 5904 5904 5904 5904 5904 5903 5903 5903
5919 5919 5920 5920 5921 5922 5922 5923 5921 5920 5919 5919 5918 5918 5918 5917 5917 5916 5915 5915 5914 5914 5913 5912 5911 5910 5910 5909 5908 5907 5906 5906 5905 5904 5904 5904 5904 5904 5904 5904 5903 5903 5903 5903 5902 5902 5902 5901 5901
5916 5916 5917 5917 5918 5919 5920 5920 5921 5918 5917 5917 5916 5916 5915 5915 5915 5915 5914 5913 5913 5912 5912 5911 5910 5909 5909 5908 5907 5906 5906 5905 5904 5903 5903 5903 5902 5902 5902 5902 5902 5902 5901 5901 5901 5900 5900 5900 5899
5912 5914 5914 5914 5916 5917 5917 5918 5918 5917 5915 5915 5914 5913 5913 5913 5913 5912 5912 5911 5911 5911 5910 5910 5909 5908 5907 5906 5906 5905 5904 5903 5903 5902 5902 5901 5901 5901 5900 5900 5900 5900 5899 5899 5899 5898 5898 5897 5897
5909 5912 5913 5913 5914 5915 5913 5914 5915 5913 5913 5912 5911 5911 5910 5910 5910 5910 5909 5909 5909 5909 5908 5908 5907 5906 5906 5905 5904 5903 5902 5902 5901 5901 5900 5900 5899 5899 5899 5898 5898 5897 5897 5897 5896 5896 5895 5895 5894
5905 5908 5910 5911 5912 5912 5910 5910 5911 5910 5909 5909 5908 5908 5907 5907 5907 5907 5907 5906 5906 5906 5906 5905 5905 5904 5903 5903 5902 5901 5900 5900 5899 5899 5898 5897 5897 5897 5896 5896 5896 5895 5894 5894 5893 5893 5892 5892 5891
5901 5902 5904 5906 5906 5907 5907 5907 5907 5906 5905 5905 5905 5905 5904 5904 5904 5904 5904 5903 5903 5903 5903 5903 5902 5902 5901 5900 5899 5898 5897 5897 5896 5896 5895 5895 5894 5894 5893 5893 5893 5892 5891 5891 5890 5890 5889 5888 5888
5897 5898 5899 5901 5901 5903 5904 5903 5904 5902 5902 5901 5901 5901 5901 5901 5900 5900 5900 5900 5900 5900 5900 5900 5899 5899 5898 5897 5896 5895 5894 5894 5893 5893 5893 5892 5891 5891 5890 5890 5889 5889 5888 5888 5887 5886 5886 5885 5884
5892 5893 5894 5895 5897 5898 5900 5902 5899 5898 5897 5897 5897 5897 5897 5897 5896 5896 5896 5896 5896 5896 5896 5896 5895 5895 5894 5894 5893 5892 5891 5890 5890 5889 5889 5888 5888 5887 5886 5886 5885 5884 5884 5883 5883 5882 5882 5881 5880
5886 5888 5889 5891 5891 5891 5893 5898 5894 5893 5892 5892 5891 5891 5892 5892 5892 5892 5892 5892 5892 5892 5892 5891 5891 5891 5890 5889 5889 5888 5887 5886 5885 5885 5884 5884 5883 5883 5882 5881 5881 5880 5879 5879 5878 5878 5877 5877 5876